Location: Townhomes of Cocoa Beach
(28.3513°N, 80.6103°W)
Time: 21:37:35
(UTC-05:00)

ISS - Visible Passes

Search period start: 14 December 2017 00:00
Search period end: 24 December 2017 00:00
Orbit: 403 x 406 km, 51.6° (Epoch: 15 December)

Date Brightness Start Highest point End Pass type
(mag) Time Alt. Az. Time Alt. Az. Time Alt. Az.
14 Dec -1.6 19:02:24 10° NNW 19:03:20 17° NNW 19:03:20 17° NNW visible
15 Dec -2.2 18:10:45 10° N 18:13:09 18° NE 18:14:27 15° ENE visible
15 Dec -0.5 19:46:50 10° WNW 19:47:12 12° WNW 19:47:12 12° WNW visible
16 Dec -3.5 18:54:12 10° NW 18:57:27 63° SW 18:58:56 28° SSE visible
17 Dec -3.7 18:02:02 10° NNW 18:05:13 50° NE 18:08:24 10° ESE visible
18 Dec -0.9 18:46:48 10° W 18:49:14 19° SW 18:51:37 10° S visible
19 Dec -2.5 17:53:55 10° NW 17:57:04 45° SW 18:00:12 10° SSE visible
